| time (UTC) | temp F | wind direction | speed MPH | gust MPH | rain 1hr in | rain 24hr in | rain mn in | humidity % | barometer mb |
| 20260504050015 | 61 | 209 | 0.0 | 1.0 | 0.00 | 0.00 | 0.00 | 62 | 1009.8 |
| 20260504044518 | 62 | 153 | 0.0 | 2.0 | 0.00 | 0.00 | 0.00 | 61 | 1009.9 |
| 20260504043024 | 63 | 158 | 0.0 | 1.0 | 0.00 | 0.00 | 0.00 | 61 | 1009.8 |
| 20260504041514 | 64 | 145 | 0.0 | 1.0 | 0.00 | 0.00 | 0.00 | 58 | 1009.8 |
| 20260504040019 | 64 | 129 | 0.0 | 1.0 | 0.00 | 0.00 | 0.00 | 60 | 1009.7 |
| 20260504034512 | 65 | 153 | 0.0 | 1.0 | 0.00 | 0.00 | 0.00 | 60 | 1009.8 |
| 20260504033011 | 66 | 124 | 0.0 | 2.0 | 0.00 | 0.00 | 0.00 | 58 | 1009.7 |
| 20260504031514 | 68 | 184 | 2.0 | 4.0 | 0.00 | 0.00 | 0.00 | 55 | 1009.6 |
| 20260504030010 | 69 | 217 | 0.0 | 4.0 | 0.00 | 0.00 | 0.00 | 53 | 1009.7 |
| 20260504024514 | 70 | 145 | 0.0 | 3.0 | 0.00 | 0.00 | 0.00 | 52 | 1009.9 |
| 20260504023007 | 70 | 202 | 0.0 | 3.0 | 0.00 | 0.00 | 0.00 | 52 | 1009.9 |
| 20260504021505 | 71 | 226 | 1.0 | 4.0 | 0.00 | 0.00 | 0.00 | 51 | 1009.9 |
| 20260504020004 | 72 | 235 | 0.0 | 3.0 | 0.00 | 0.00 | 0.00 | 52 | 1010.1 |
| 20260504014503 | 73 | 238 | 0.0 | 2.0 | 0.00 | 0.00 | 0.00 | 51 | 1010.2 |
| 20260504013106 | 72 | 307 | 0.0 | 2.0 | 0.00 | 0.00 | 0.00 | 53 | 1010.4 |
| 20260504011600 | 73 | 360 | 0.0 | 2.0 | 0.00 | 0.00 | 0.00 | 51 | 1010.5 |
| 20260504010059 | 74 | 359 | 0.0 | 2.0 | 0.00 | 0.00 | 0.00 | 51 | 1010.6 |
| 20260504004559 | 72 | 160 | 0.0 | 1.0 | 0.00 | 0.00 | 0.00 | 53 | 1010.8 |
| 20260504003154 | 73 | 307 | 0.0 | 3.0 | 0.00 | 0.00 | 0.00 | 50 | 1010.9 |
| 20260504001556 | 74 | 265 | 1.0 | 3.0 | 0.00 | 0.00 | 0.00 | 49 | 1011.0 |
| 20260504000053 | 73 | 219 | 0.0 | 4.0 | 0.00 | 0.00 | 0.00 | 51 | 1011.1 |
| 20260503234600 | 70 | 334 | 1.0 | 4.0 | 0.00 | 0.00 | 0.00 | 52 | 1011.5 |
| 20260503233045 | 71 | 345 | 1.0 | 6.0 | 0.00 | 0.00 | 0.00 | 50 | 1011.6 |
| 20260503231545 | 73 | 335 | 1.0 | 3.0 | 0.00 | 0.00 | 0.00 | 50 | 1011.8 |
| 20260503230054 | 73 | 345 | 0.0 | 4.0 | 0.00 | 0.00 | 0.00 | 51 | 1011.9 |
| 20260503224541 | 72 | 49 | 0.0 | 1.0 | 0.00 | 0.00 | 0.00 | 54 | 1012.0 |
| 20260503223035 | 69 | 349 | 0.0 | 5.0 | 0.00 | 0.00 | 0.00 | 57 | 1012.4 |
| 20260503221534 | 69 | 319 | 2.0 | 7.0 | 0.00 | 0.00 | 0.00 | 56 | 1012.5 |
| 20260503220033 | 69 | 49 | 3.0 | 7.0 | 0.00 | 0.00 | 0.00 | 56 | 1012.7 |
| 20260503214539 | 69 | 350 | 1.0 | 5.0 | 0.00 | 0.00 | 0.00 | 57 | 1012.8 |
| 20260503213036 | 70 | 323 | 2.0 | 3.0 | 0.00 | 0.00 | 0.00 | 57 | 1012.9 |
| 20260503211525 | 68 | 319 | 0.0 | 4.0 | 0.00 | 0.00 | 0.00 | 60 | 1013.0 |
| 20260503210022 | 67 | 41 | 3.0 | 6.0 | 0.00 | 0.00 | 0.00 | 60 | 1013.4 |
| 20260503204519 | 66 | 328 | 1.0 | 7.0 | 0.00 | 0.00 | 0.00 | 63 | 1013.6 |
| 20260503203017 | 66 | 24 | 3.0 | 7.0 | 0.00 | 0.00 | 0.00 | 63 | 1013.8 |
| 20260503201517 | 66 | 58 | 3.0 | 6.0 | 0.00 | 0.00 | 0.00 | 65 | 1014.0 |
| 20260503200014 | 66 | 303 | 3.0 | 7.0 | 0.00 | 0.00 | 0.00 | 64 | 1014.2 |
| 20260503194513 | 66 | 1 | 3.0 | 7.0 | 0.00 | 0.00 | 0.00 | 63 | 1014.1 |
| 20260503193011 | 65 | 1 | 2.0 | 6.0 | 0.00 | 0.00 | 0.00 | 65 | 1014.2 |
| 20260503191516 | 65 | 10 | 2.0 | 5.0 | 0.00 | 0.00 | 0.00 | 65 | 1014.3 |
| 20260503190008 | 65 | 311 | 1.0 | 4.0 | 0.00 | 0.00 | 0.00 | 65 | 1014.4 |
| 20260503184507 | 66 | 316 | 1.0 | 4.0 | 0.00 | 0.00 | 0.00 | 64 | 1014.5 |
| 20260503183007 | 65 | 344 | 0.0 | 4.0 | 0.00 | 0.00 | 0.00 | 67 | 1014.7 |
| 20260503181504 | 65 | 16 | 1.0 | 6.0 | 0.00 | 0.00 | 0.00 | 66 | 1014.7 |
| 20260503180117 | 64 | 12 | 2.0 | 7.0 | 0.00 | 0.00 | 0.00 | 67 | 1014.9 |
| 20260503174600 | 64 | 46 | 1.0 | 6.0 | 0.00 | 0.00 | 0.00 | 67 | 1015.0 |
| 20260503173108 | 63 | 360 | 2.0 | 5.0 | 0.00 | 0.00 | 0.00 | 69 | 1015.1 |
| 20260503171555 | 63 | 359 | 3.0 | 5.0 | 0.00 | 0.00 | 0.00 | 71 | 1015.2 |
| 20260503081531 | 58 | 136 | 0.0 | 1.0 | 0.00 | 0.00 | 0.00 | 67 | 1015.2 |